Waarnemingen

Advertentie
Mijn weer
Gaddede A, Zweden (2219): temperatuur & dauwpunt: 17.05.2018 22:00:00 - 23.05.2018 22:00:00 (CEST)Gaddede A, Zweden (2219): windsnelheid & windstoten: 17.05.2018 22:00:00 - 23.05.2018 22:00:00 (CEST)Gaddede A, Zweden (2219): windrichting: 17.05.2018 22:00:00 - 23.05.2018 22:00:00 (CEST)Gaddede A, Zweden (2219): luchtdruk: 17.05.2018 22:00:00 - 23.05.2018 22:00:00 (CEST)Gaddede A, Zweden (2219): zicht: 17.05.2018 22:00:00 - 23.05.2018 22:00:00 (CEST)Gaddede A, Zweden (2219): neerslag: 17.05.2018 22:00:00 - 23.05.2018 22:00:00 (CEST)
Datum & Tijd tt [°C] td [°C] ff [km/u] ff [kn] fx [km/u] fx [kn] dd ppp [hPa] vv [km] rr [mm]
23.05.2018 22:00:00 7,0 -3,0 10 5 12 7 N 1029,7 50 -
23.05.2018 21:00:00 8,6 -3,3 5 3 13 7 NNW 1029,3 50 -
23.05.2018 20:00:00 12,0 -5,5 7 4 22 12 WNW 1028,0 50 -
23.05.2018 19:00:00 13,7 -5,0 9 5 25 13 W 1027,4 50 -
23.05.2018 18:00:00 13,7 -7,1 11 6 21 11 WNW 1027,2 50 -
23.05.2018 17:00:00 14,2 -6,7 10 5 23 13 WNW 1027,0 46 -
23.05.2018 16:00:00 13,8 -6,4 9 5 22 12 NW 1027,1 50 -
23.05.2018 15:00:00 13,5 -6,2 10 5 21 12 NNW 1026,9 50 -
23.05.2018 14:00:00 13,6 -5,6 10 6 19 10 WNW 1027,0 39 -
23.05.2018 13:00:00 10,8 -7,0 6 4 19 10 NW 1027,6 42 -
23.05.2018 12:00:00 10,8 -6,1 8 5 19 11 WNW 1027,7 46 -
23.05.2018 11:00:00 8,4 -5,5 10 5 18 10 WZW 1028,0 50 -
23.05.2018 10:00:00 8,6 -2,7 10 6 19 10 W 1027,8 48 -
23.05.2018 09:00:00 6,6 -2,8 5 3 17 9 WNW 1028,1 50 -
23.05.2018 08:00:00 4,6 -2,3 6 4 14 8 WNW 1028,5 50 -
23.05.2018 07:00:00 3,3 -1,8 7 4 14 8 W 1028,7 50 -
23.05.2018 06:00:00 1,7 -1,4 5 3 16 9 W 1028,9 49 -
23.05.2018 05:00:00 -0,3 -1,7 7 4 16 9 WNW 1028,7 50 -
23.05.2018 04:00:00 -0,3 -1,6 7 4 19 10 NW 1028,7 50 -
23.05.2018 03:00:00 -0,1 -1,5 9 5 21 12 NNW 1028,1 50 -
23.05.2018 02:00:00 0,8 -1,0 9 5 20 11 NNW 1027,8 50 -
23.05.2018 01:00:00 1,1 -1,0 9 5 20 11 NW 1027,4 50 -
23.05.2018 00:00:00 0,6 -1,2 8 5 13 7 WNW 1027,2 50 -
22.05.2018 23:00:00 3,4 -0,2 6 3 21 11 W 1026,2 50 -
22.05.2018 22:00:00 5,1 0,7 13 7 34 18 WNW 1025,3 50 -
22.05.2018 21:00:00 6,7 1,8 13 7 30 16 W 1024,3 50 -
22.05.2018 20:00:00 5,9 2,4 16 8 35 19 WNW 1024,3 50 -
22.05.2018 19:00:00 7,1 3,9 17 9 35 19 WNW 1023,9 50 -
22.05.2018 18:00:00 6,9 4,4 17 9 35 19 W 1023,9 27 -
22.05.2018 17:00:00 10,2 5,2 19 10 40 21 W 1022,8 31 -
22.05.2018 16:00:00 13,1 5,0 21 11 41 22 WNW 1021,7 32 -
22.05.2018 15:00:00 13,9 5,5 17 9 37 20 WNW 1021,2 45 -
22.05.2018 14:00:00 16,4 5,7 16 8 35 19 WNW 1020,1 39 -
22.05.2018 13:00:00 16,8 4,1 16 9 32 17 W 1019,8 43 -
22.05.2018 12:00:00 16,1 4,5 12 7 34 18 WNW 1019,6 38 -
22.05.2018 11:00:00 16,0 5,3 16 8 29 15 WNW 1019,5 42 -
22.05.2018 10:00:00 14,2 5,3 12 7 21 12 WNW 1019,9 50 -
22.05.2018 09:00:00 13,7 5,1 6 4 14 8 WNW 1019,9 46 -
22.05.2018 08:00:00 10,3 5,1 4 2 7 4 WZW 1020,8 44 -
22.05.2018 07:00:00 8,6 5,3 3 2 5 3 W 1021,4 40 -
22.05.2018 06:00:00 6,5 5,4 2 1 7 4 O 1022,2 36 -
22.05.2018 05:00:00 4,5 3,9 4 2 8 5 O 1022,8 25 -
22.05.2018 04:00:00 3,4 2,8 6 3 10 5 O 1023,5 21 -
22.05.2018 03:00:00 3,2 2,6 2 1 7 4 OZO 1023,9 16 -
22.05.2018 02:00:00 3,6 2,6 3 2 6 3 ONO 1024,2 21 -
22.05.2018 01:00:00 5,8 4,3 3 2 14 7 W 1023,9 31 -
22.05.2018 00:00:00 8,5 5,2 4 2 12 7 ZZO 1023,2 40 -
21.05.2018 23:00:00 9,4 5,2 4 2 11 6 ZZO 1023,0 43 -
21.05.2018 22:00:00 10,2 5,6 3 1 14 8 Z 1022,9 46 -
21.05.2018 21:00:00 11,9 5,7 6 3 20 11 WNW 1022,4 50 -
21.05.2018 20:00:00 12,4 6,0 3 2 14 8 WNW 1022,1 41 -
21.05.2018 19:00:00 14,7 6,5 4 2 22 12 WNW 1021,5 50 -
21.05.2018 18:00:00 16,1 5,4 9 5 20 11 WNW 1021,4 50 -
21.05.2018 17:00:00 17,4 4,4 10 5 22 12 W 1021,5 45 -
21.05.2018 16:00:00 19,0 2,8 10 6 21 11 WNW 1021,2 40 -
21.05.2018 15:00:00 18,8 4,2 8 4 22 12 W 1021,2 45 -
21.05.2018 14:00:00 17,7 3,2 8 5 20 11 W 1021,6 50 -
21.05.2018 13:00:00 16,6 5,5 6 3 26 14 W 1022,1 34 -
21.05.2018 12:00:00 15,1 4,5 11 6 19 10 WNW 1022,5 37 -
21.05.2018 11:00:00 14,0 4,6 8 4 22 12 WNW 1022,7 35 -
21.05.2018 10:00:00 13,3 4,7 8 5 17 9 WNW 1022,8 43 -
21.05.2018 09:00:00 11,7 4,0 7 4 24 13 WNW 1022,8 39 -
21.05.2018 08:00:00 10,9 3,9 5 3 11 6 W 1022,5 48 -
21.05.2018 07:00:00 10,1 2,9 3 2 8 5 W 1022,3 50 -
21.05.2018 06:00:00 8,7 2,7 3 2 10 6 W 1022,2 50 -
21.05.2018 05:00:00 8,6 1,7 9 5 24 13 N 1021,4 50 -
21.05.2018 04:00:00 8,3 1,9 13 7 22 12 N 1020,8 50 -
21.05.2018 03:00:00 4,7 1,9 4 2 11 6 O 1021,6 50 -
21.05.2018 02:00:00 6,9 3,0 4 2 11 6 O 1020,7 50 -
21.05.2018 01:00:00 7,8 3,1 5 3 9 5 O 1020,3 50 -
21.05.2018 00:00:00 9,0 3,8 3 2 8 5 O 1019,9 50 -
20.05.2018 23:00:00 9,9 3,6 4 2 8 4 O 1019,8 50 -
20.05.2018 22:00:00 11,4 3,9 4 2 7 4 O 1019,4 50 -
20.05.2018 21:00:00 13,0 1,9 3 1 23 12 O 1018,6 50 -
20.05.2018 20:00:00 13,6 0,6 8 4 27 14 N 1018,7 50 -
20.05.2018 19:00:00 14,4 0,3 11 6 32 18 NNW 1018,7 50 -
20.05.2018 18:00:00 19,2 -0,8 17 9 32 17 W 1016,6 50 -
20.05.2018 17:00:00 20,1 -1,1 16 9 34 18 W 1016,2 50 -
20.05.2018 16:00:00 20,2 1,6 16 9 29 16 W 1016,3 50 -
20.05.2018 15:00:00 19,1 2,4 11 6 27 14 WZW 1016,7 50 -
20.05.2018 14:00:00 18,3 2,6 10 6 22 12 ZZO 1017,1 40 -
20.05.2018 13:00:00 16,2 1,5 8 4 22 12 ZO 1017,7 50 -
20.05.2018 12:00:00 14,5 2,7 14 7 27 15 ZO 1018,5 50 -
20.05.2018 11:00:00 13,4 2,3 14 8 29 16 ZO 1018,7 50 -
20.05.2018 10:00:00 12,8 3,2 8 5 22 12 ZZO 1019,3 50 -
20.05.2018 09:00:00 11,5 3,0 10 5 19 10 ZO 1019,9 50 -
20.05.2018 08:00:00 10,0 2,8 12 6 27 14 OZO 1020,1 50 -
20.05.2018 07:00:00 9,1 2,6 14 8 24 13 OZO 1020,3 50 -
20.05.2018 06:00:00 7,6 2,9 11 6 21 12 O 1020,7 50 -
20.05.2018 05:00:00 5,9 3,4 9 5 15 8 O 1021,7 50 -
20.05.2018 04:00:00 2,4 1,8 6 3 11 6 O 1023,0 50 -
20.05.2018 03:00:00 2,1 1,4 6 3 11 6 ONO 1023,2 50 -
20.05.2018 02:00:00 2,6 2,0 5 3 8 4 O 1023,0 49 -
20.05.2018 01:00:00 2,7 1,8 3 2 12 6 O 1023,3 47 -
20.05.2018 00:00:00 4,4 2,9 5 3 13 7 NW 1022,9 50 -
19.05.2018 23:00:00 5,1 3,0 2 1 14 8 O 1022,6 50 -
19.05.2018 22:00:00 7,7 4,6 8 5 15 8 WNW 1022,2 50 -
19.05.2018 21:00:00 7,8 4,6 6 3 18 10 W 1022,0 50 -
19.05.2018 20:00:00 8,2 4,6 9 5 28 15 W 1021,8 50 -
19.05.2018 19:00:00 8,9 4,5 13 7 26 14 W 1021,7 50 0,0
19.05.2018 18:00:00 9,0 4,2 9 5 28 15 WNW 1021,8 50 -
19.05.2018 17:00:00 9,2 3,8 13 7 34 18 W 1021,8 50 0,0
19.05.2018 16:00:00 9,4 3,4 9 5 25 14 WNW 1021,6 50 0,0
19.05.2018 15:00:00 9,5 2,1 10 5 31 17 W 1021,4 50 -
19.05.2018 14:00:00 9,8 1,7 11 6 24 13 WNW 1021,1 50 -
19.05.2018 13:00:00 8,9 0,1 9 5 24 13 W 1021,5 50 -
19.05.2018 12:00:00 9,9 0,2 11 6 36 19 W 1021,2 50 -
19.05.2018 11:00:00 11,7 -0,5 16 9 36 19 W 1020,1 50 -
19.05.2018 10:00:00 10,6 0,0 14 7 25 13 W 1020,4 46 -
19.05.2018 09:00:00 9,2 0,6 14 8 26 14 WNW 1020,8 48 -
19.05.2018 08:00:00 7,3 0,0 10 5 20 11 W 1021,3 50 -
19.05.2018 07:00:00 6,4 -0,1 5 3 16 8 W 1021,1 50 -
19.05.2018 06:00:00 3,6 0,8 3 2 10 5 WNW 1021,8 50 -
19.05.2018 05:00:00 0,8 -1,3 4 2 7 4 O 1022,4 50 -
19.05.2018 04:00:00 1,1 -1,6 5 3 8 5 O 1022,4 50 -
19.05.2018 03:00:00 1,6 -1,8 6 3 9 5 O 1022,5 50 -
19.05.2018 02:00:00 0,6 -2,1 6 3 9 5 O 1022,7 50 -
19.05.2018 01:00:00 0,3 -2,1 6 3 10 6 O 1022,9 50 -
19.05.2018 00:00:00 0,5 -2,4 6 3 10 6 O 1023,2 50 -
18.05.2018 23:00:00 1,7 -1,9 6 4 10 5 O 1023,0 50 -
18.05.2018 22:00:00 4,2 -1,6 4 2 6 3 O 1022,4 50 -
18.05.2018 21:00:00 7,8 -2,5 4 2 10 5 NO 1021,6 50 -
18.05.2018 20:00:00 8,3 -1,5 3 2 16 9 WNW 1021,6 50 -
18.05.2018 19:00:00 8,8 -2,5 11 6 23 12 NW 1021,6 50 -
18.05.2018 18:00:00 10,3 -2,4 10 5 26 14 W 1021,2 50 -
18.05.2018 17:00:00 11,2 -1,6 14 8 35 19 W 1021,2 46 -
18.05.2018 16:00:00 10,9 -1,2 16 8 33 18 W 1021,5 50 -
18.05.2018 15:00:00 10,6 -1,2 15 8 31 17 W 1021,5 46 -
18.05.2018 14:00:00 10,1 -0,1 14 8 33 18 W 1021,9 50 -
18.05.2018 13:00:00 9,4 0,0 17 9 32 17 W 1022,2 43 -
18.05.2018 12:00:00 8,9 0,6 13 7 30 16 W 1022,5 43 -
18.05.2018 11:00:00 7,4 -0,3 16 9 35 19 W 1022,6 47 -
18.05.2018 10:00:00 6,9 0,6 16 9 31 17 WNW 1022,5 43 -
18.05.2018 09:00:00 5,1 0,3 13 7 29 16 W 1022,8 50 -
18.05.2018 08:00:00 5,1 1,8 14 7 29 16 WNW 1022,3 44 -
18.05.2018 07:00:00 3,2 1,9 12 7 25 13 NW 1022,5 38 -
18.05.2018 06:00:00 2,1 1,5 12 6 23 12 W 1022,6 31 0,0
18.05.2018 05:00:00 2,5 1,6 10 5 20 11 WNW 1022,4 50 0,0
18.05.2018 04:00:00 2,3 1,6 5 3 17 9 WNW 1022,5 34 0,0
18.05.2018 03:00:00 2,2 1,2 5 3 18 10 W 1022,6 11 0,0
18.05.2018 02:00:00 2,5 0,6 10 5 25 14 W 1022,4 50 -
18.05.2018 01:00:00 3,1 0,0 11 6 22 12 W 1022,4 48 -
18.05.2018 00:00:00 3,1 -3,5 7 4 16 9 W 1022,8 50 -
17.05.2018 23:00:00 2,5 -5,4 7 4 17 9 NW 1023,2 50 -
17.05.2018 22:00:00 3,1 -4,8 11 6 22 12 WNW 1022,8 50 -

tt = temperatuur
td = dauwpunt
ff = windsnelheid
fx = windstoten
dd = windrichting
ppp = luchtdruk
vv = zicht
rr = neerslag

Weerstations in de omgeving